Change the Weather History Date:

Saturday, July 20, 2013

  Actual Average Record
Temperature  
Mean Temperature 76 °F -  
Max Temperature 94 °F - - ()
Min Temperature 58 °F - - ()
Cooling Degree Days 11    
Growing Degree Days 26 (Base 50)    
Moisture  
Dew Point 42 °F    
Average Humidity 29    
Maximum Humidity 50    
Minimum Humidity 7    
Precipitation  
Precipitation 0.00 in - - ()
Sea Level Pressure  
Sea Level Pressure 29.86 in    
Wind  
Wind Speed 4 mph ()    
Max Wind Speed 8 mph    
Max Gust Speed -    
T = Trace of Precipitation, MM = Missing Value Source: Averaged Metar Reports

Daily Weather History Graph

Daily Weather History Graph

Search for Another Location

Airport or City:

Trip Planner

Search our weather history database for the weather conditions in past years. The results will help you decide how hot, cold, wet, or windy it might be!

Date:

Astronomy

Jul. 20, 2013 Rise Set
Actual Time 5:14 AM PDT 8:54 PM PDT
Civil Twilight 4:33 AM PDT 9:35 PM PDT
Nautical Twilight 3:38 AM PDT 10:29 PM PDT
Astronomical Twilight 2:17 AM PDT 11:48 PM PDT
Moon 7:01 PM PDT (7/20) 3:00 AM PDT (7/20)
Length of Visible Light 17h 01m
Length of Day
15h 40m
Waxing Gibbous, 94% of the Moon is Illuminated
Jul 20
Waxing Gibbous
Jul 22
Full
Jul 29
Last Quarter
Aug 6
New
Aug 14
First Quarter

Hourly Weather History & Observations

Time (PDT) Temp. Dew Point Humidity Pressure Visibility Wind Dir Wind Speed Gust Speed Precip Events Conditions
12:00 AM 68.7 °F 38.5 °F 33% 29.95 in - West 4.6 mph - N/A   Unknown
1:00 AM 64.0 °F 39.0 °F 40% 29.95 in - West 4.6 mph - N/A   Unknown
2:00 AM 61.5 °F 39.9 °F 45% 29.95 in - West 4.6 mph - N/A   Unknown
3:00 AM 60.6 °F 40.1 °F 47% 29.95 in - West 4.6 mph - N/A   Unknown
4:00 AM 60.3 °F 39.9 °F 47% 29.94 in - West 4.6 mph - N/A   Unknown
5:00 AM 60 °F 40 °F 36% 29.94 in - WNW 5.8 mph - -  
5:00 AM 59.5 °F 40.3 °F 49% 29.94 in - WNW 5.8 mph - N/A   Unknown
6:00 AM 59.9 °F 41.2 °F 50% 29.94 in - West 8.1 mph - N/A   Unknown
7:00 AM 67.3 °F 45.1 °F 45% 29.94 in - West 2.3 mph - N/A   Unknown
8:00 AM 73.4 °F 52.3 °F 48% 29.93 in - ESE 3.5 mph - N/A   Unknown
9:00 AM 76.5 °F 48.2 °F 37% 29.92 in - ESE 4.6 mph - N/A   Unknown
10:00 AM 80.6 °F 44.6 °F 28% 29.91 in - ESE 3.5 mph - N/A   Unknown
11:00 AM 84 °F 42 °F 14% 29.88 in - ESE 4.6 mph - -  
11:00 AM 83.8 °F 42.4 °F 23% 29.88 in - ESE 4.6 mph - N/A   Unknown
12:00 PM 86.5 °F 46.4 °F 25% 29.86 in - East 4.6 mph - N/A   Unknown
1:00 PM 88.9 °F 46.2 °F 23% 29.85 in - SE 3.5 mph - N/A   Unknown
2:00 PM 90.1 °F 41.4 °F 18% 29.83 in - ESE 5.8 mph - N/A   Unknown
3:00 PM 92.5 °F 40.5 °F 16% 29.81 in - ESE 3.5 mph - N/A   Unknown
4:00 PM 94.1 °F 41.2 °F 16% 29.79 in - ENE 3.5 mph - N/A   Unknown
5:00 PM 94 °F 37 °F 7% 29.77 in - NNE 3.5 mph - -  
5:00 PM 93.9 °F 36.9 °F 14% 29.77 in - NNE 3.5 mph - N/A   Unknown
6:00 PM 93.7 °F 37.9 °F 14% 29.75 in - NW 5.8 mph - N/A   Unknown
7:00 PM 92.1 °F 40.1 °F 16% 29.73 in - NNW 4.6 mph - N/A   Unknown
8:00 PM 87.3 °F 40.1 °F 19% 29.74 in - NNW 5.8 mph - N/A   Unknown
9:00 PM 81.9 °F 41.7 °F 24% 29.76 in - WNW 4.6 mph - N/A   Unknown
10:00 PM 77.0 °F 43.3 °F 30% 29.78 in - ESE 2.3 mph - N/A   Unknown
11:00 PM 76 °F 42 °F 20% 29.79 in - WNW 2.3 mph - -  
11:00 PM 75.9 °F 42.4 °F 30% 29.79 in - WNW 2.3 mph - N/A   Unknown